Kranj, Slovenia

11:09 PM CET on December 06, 2016 (GMT +0100)
Ljubljana

Weather History for LJLJ - October, 2012

Change the Weather History Date:

Sunday, October 28, 2012

  Actual Average (LOWK) Record (LOWK)
Temperature  
Mean Temperature 39 °F -  
Max Temperature 46 °F 53 °F 70 °F (2013)
Min Temperature 32 °F 37 °F 23 °F (1997)
Degree Days  
Heating Degree Days 26    
Moisture  
Dew Point 34 °F    
Average Humidity 96    
Maximum Humidity 100    
Minimum Humidity 87    
Precipitation  
Precipitation 0.00 in - - ()
Sea Level Pressure  
Sea Level Pressure 29.62 in    
Wind  
Wind Speed 4 mph ()    
Max Wind Speed 9 mph    
Max Gust Speed -    
Visibility 2.4 miles    
Events Rain , Snow , Thunderstorm    
Averages and records for this station are not official NWS values.
T = Trace of Precipitation, MM = Missing Value Source: Averaged Metar Reports

Daily Weather History Graph

Daily Weather History Graph

Search for Another Location

Airport or City:

Trip Planner

Search our weather history database for the weather conditions in past years. The results will help you decide how hot, cold, wet, or windy it might be!

Date:

Astronomy

Oct. 28, 2012 Rise Set
Actual Time 6:37 AM CET 4:53 PM CET
Civil Twilight 6:06 AM CET 5:24 PM CET
Nautical Twilight 5:31 AM CET 5:59 PM CET
Astronomical Twilight 4:56 AM CET 6:34 PM CET
Moon 4:02 PM CET (10/28) 5:11 AM CET (10/28)
Length of Visible Light 11h 17m
Length of Day
10h 15m
Waxing Gibbous, 98% of the Moon is Illuminated
Oct 28
Waxing Gibbous
Oct 29
Full
Nov 7
Last Quarter
Nov 13
New
Nov 20
First Quarter

Hourly Weather History & Observations

Time (CET) Temp. Windchill Dew Point Humidity Pressure Visibility Wind Dir Wind Speed Gust Speed Precip Events Conditions
12:00 AM 46.4 °F 41.9 °F 44.6 °F 93% 29.30 in 3.1 mi NNW 9.2 mph - N/A Rain Rain
12:30 AM 46.4 °F 44.3 °F 42.8 °F 87% 29.33 in 3.7 mi NNW 4.6 mph - N/A Rain Light Rain
1:00 AM 46.4 °F 43.5 °F 42.8 °F 87% 29.33 in 4.3 mi WSW 5.8 mph - N/A Rain Light Rain
1:30 AM 44.6 °F 40.2 °F 42.8 °F 93% 29.33 in 5.0 mi WSW 8.1 mph - N/A Rain Light Rain
2:00 AM 44.6 °F 40.7 °F 42.8 °F 93% 29.36 in 5.0 mi SW 6.9 mph - N/A Rain Light Rain
2:30 AM 44.6 °F 40.7 °F 42.8 °F 93% 29.36 in 5.0 mi SW 6.9 mph - N/A Rain Light Rain
2:00 AM 42.8 °F 37.5 °F 41.0 °F 93% 29.42 in 5.0 mi ESE 9.2 mph - N/A Rain Light Rain
2:30 AM 41.0 °F 38.0 °F 39.2 °F 93% 29.44 in 5.0 mi SE 4.6 mph - N/A Rain , Thunderstorm Light Thunderstorms and Rain
3:00 AM 41.0 °F 39.0 °F 41.0 °F 100% 29.47 in 3.7 mi SSW 3.5 mph - N/A Rain , Thunderstorm Thunderstorms and Rain
3:30 AM 39.2 °F 35.0 °F 35.6 °F 87% 29.47 in 3.1 mi North 5.8 mph - N/A Rain Rain Showers
4:00 AM 37.4 °F 34.9 °F 35.6 °F 93% 29.50 in 4.3 mi Variable 3.5 mph - N/A Rain Light Rain Showers
4:30 AM 35.6 °F 30.7 °F 33.8 °F 93% 29.50 in 4.3 mi SSE 5.8 mph - N/A Rain , Snow Light Snow
5:00 AM 33.8 °F - 32.0 °F 93% 29.53 in 2.5 mi West 2.3 mph - N/A Snow Snow
5:30 AM 32.0 °F - 32.0 °F 100% 29.56 in 2.5 mi NNW 1.2 mph - N/A Snow Snow
6:00 AM 32.0 °F - 32.0 °F 100% 29.56 in 1.2 mi NW 2.3 mph - N/A Snow Snow
6:30 AM 32.0 °F - 32.0 °F 100% 29.56 in 0.9 mi WSW 2.3 mph - N/A Snow Snow
7:00 AM 32.0 °F - 32.0 °F 100% 29.59 in 0.9 mi Variable 2.3 mph - N/A Snow Snow
7:30 AM 32.0 °F - 32.0 °F 100% 29.62 in 0.9 mi Variable 1.2 mph - N/A Snow Snow
8:00 AM 32.0 °F - 32.0 °F 100% 29.65 in 0.9 mi SW 1.2 mph - N/A Snow Light Snow
8:30 AM 32.0 °F - 32.0 °F 100% 29.65 in 0.6 mi Variable 2.3 mph - N/A Snow Light Snow
9:00 AM 32.0 °F - 32.0 °F 100% 29.68 in 0.6 mi Variable 2.3 mph - N/A Snow Light Snow
9:30 AM 32.0 °F - 32.0 °F 100% 29.68 in 0.9 mi Variable 2.3 mph - N/A Snow Light Snow
10:00 AM 33.8 °F 29.6 °F 33.8 °F 100% 29.68 in 1.9 mi East 4.6 mph - N/A Snow Light Snow
10:30 AM 33.8 °F - 33.8 °F 100% 29.68 in 1.9 mi Variable 2.3 mph - N/A Snow Light Snow
11:00 AM 33.8 °F 30.8 °F 33.8 °F 100% 29.68 in 1.9 mi SE 3.5 mph - N/A Snow Light Snow
11:30 AM 33.8 °F 29.6 °F 32.0 °F 93% 29.68 in 3.7 mi SE 4.6 mph - N/A Snow Light Snow
12:00 PM 33.8 °F 30.8 °F 32.0 °F 93% 29.68 in 3.7 mi East 3.5 mph - N/A Snow Light Snow
12:30 PM 33.8 °F - 33.8 °F 100% 29.68 in 3.7 mi Calm Calm - N/A Snow Light Snow
1:00 PM 33.8 °F - 32.0 °F 93% 29.71 in 5.0 mi Variable 1.2 mph - N/A Snow Light Snow
1:30 PM 33.8 °F - 32.0 °F 93% 29.71 in 5.0 mi Variable 1.2 mph - N/A Snow Light Snow
2:00 PM 33.8 °F 30.8 °F 32.0 °F 93% 29.68 in 1.2 mi WNW 3.5 mph - N/A Snow Light Snow
2:30 PM 33.8 °F 30.8 °F 32.0 °F 93% 29.68 in 1.2 mi WNW 3.5 mph - N/A Snow Light Snow
3:00 PM 33.8 °F - 32.0 °F 93% 29.71 in 1.9 mi Variable 1.2 mph - N/A Rain , Snow Light Rain
3:30 PM 33.8 °F - 32.0 °F 93% 29.71 in 1.9 mi Variable 1.2 mph - N/A Rain , Snow Light Rain
4:00 PM 33.8 °F - 32.0 °F 93% 29.71 in 1.9 mi WSW 2.3 mph - N/A Rain , Snow Light Rain
4:30 PM 33.8 °F - 32.0 °F 93% 29.74 in 1.9 mi Variable 2.3 mph - N/A Rain , Snow Light Rain
5:00 PM 32.0 °F - 32.0 °F 100% 29.74 in 0.6 mi Calm Calm - N/A Snow Light Snow
5:30 PM 32.0 °F - 32.0 °F 100% 29.77 in 0.6 mi Variable 2.3 mph - N/A Snow Snow
6:00 PM 32.0 °F - 32.0 °F 100% 29.77 in 0.9 mi Calm Calm - N/A Snow Snow
6:30 PM 32.0 °F - 32.0 °F 100% 29.77 in 1.2 mi Calm Calm - N/A Snow Light Snow
7:00 PM 32.0 °F 28.7 °F 32.0 °F 100% 29.77 in 1.9 mi West 3.5 mph - N/A Snow Light Snow
7:30 PM 32.0 °F - 32.0 °F 100% 29.77 in 1.9 mi Calm Calm - N/A Snow Light Snow
8:00 PM 32.0 °F - 32.0 °F 100% 29.77 in 1.9 mi NNW 2.3 mph - N/A Snow Light Snow
8:30 PM 32.0 °F 27.5 °F 32.0 °F 100% 29.77 in 1.9 mi West 4.6 mph - N/A Snow Light Snow
9:00 PM 32.0 °F - 32.0 °F 100% 29.77 in 1.9 mi Variable 2.3 mph - N/A Snow Light Snow
9:30 PM 32.0 °F - 32.0 °F 100% 29.77 in 1.9 mi North 2.3 mph - N/A Snow Light Snow
10:00 PM 32.0 °F - 32.0 °F 100% 29.80 in 0.6 mi WSW 2.3 mph - N/A Snow Snow
10:30 PM 32.0 °F - 32.0 °F 100% 29.80 in 0.9 mi Calm Calm - N/A Snow Snow